Beale Air Force Base

Airport
ICAO code: 
KBAB
Summary
ICAO Region: 
NAM
Territory: 
Location: 
Marysville, California,
Coordinates: 
Aerial View: 
39° 8' 47.372" N, 121° 26' 5.155" W
Metar
Observation
KBAB 210458Z AUTO 00000KT 10SM CLR 08/06 A3025 RMK AO2 SLP247 T00770058 $
Station
Marysville, Beale Air Force Base
Date/Time
2022-01-21 04:58:00
Wind direction
Wind speed
00 kts
Lowest cloud amount
n/a
Temperature
7.7°C
Dew point
5.8°C
Humidity
87%
Weather condition
n/a

Description

Beale Air Force Base (AFB) is a United States Air Force base located approximately 20 km east of Yuba City, California.

Climatology

Dry-summer subtropical ”Mediterranean" climate (Köppen climate classification Csb) - characterized by warm, dry summers and mild winters.

Runways

Designator Length Width Surface Rops
15/33 3658 91 CON Yes/Yes
Airport map: 
Aerial View: 

SKYbrary Partners:

Safety knowledge contributed by: